DW5434 Weather Reports


Display with metric or nautical units.
time (UTC)temp
F
wind
direction
speed
MPH
gust
MPH
rain 1hr
in
rain 24hr
in
rain mn
in
humidity
%
barometer
mb
20260507191530 68 278 4.0 15.0 0.00 0.00 0.00 25 1014.4
20260507190032 67 307 13.0 18.0 0.00 0.00 0.00 26 1014.5
20260507184525 66 293 8.0 20.0 0.00 0.00 0.00 24 1014.6
20260507183025 66 314 11.0 20.0 0.00 0.00 0.00 26 1014.7
20260507181523 65 298 9.0 19.0 0.00 0.00 0.00 25 1014.8
20260507180024 65 275 12.0 19.0 0.00 0.00 0.00 26 1014.9
20260507174519 64 330 12.0 17.0 0.00 0.00 0.00 27 1014.9
20260507173018 63 264 13.0 21.0 0.00 0.00 0.00 29 1015.0
20260507171515 63 283 12.0 16.0 0.00 0.00 0.00 29 1015.0
20260507170014 62 304 11.0 17.0 0.00 0.00 0.00 32 1015.0
20260507164512 62 304 16.0 21.0 0.00 0.00 0.00 29 1015.1
20260507163014 62 283 12.0 19.0 0.00 0.00 0.00 30 1014.8
20260507161508 60 250 11.0 19.0 0.00 0.00 0.00 32 1014.8
20260507160005 60 245 16.0 21.0 0.00 0.00 0.00 34 1014.8
20260507154503 60 270 12.0 20.0 0.00 0.00 0.00 37 1014.9
20260507153101 59 281 9.0 14.0 0.00 0.00 0.00 44 1015.2
20260507151556 57 269 5.0 13.0 0.00 0.00 0.00 51 1015.1
20260507150056 58 262 7.0 13.0 0.00 0.00 0.00 52 1015.1
20260507144553 57 250 11.0 16.0 0.00 0.00 0.00 57 1014.8
20260507143051 56 247 13.0 18.0 0.00 0.00 0.00 59 1014.6
20260507141555 54 222 13.0 18.0 0.00 0.00 0.00 62 1014.5
20260507140103 53 224 10.0 13.0 0.00 0.00 0.00 64 1014.4
20260507134546 0 0.0 0.0 0.00 0.00 0.00 1014.4
20260507133042 0 0.0 0.0 0.00 0.00 0.00 1014.4
20260507131543 0 0.0 0.0 0.00 0.00 0.00 1014.4
20260507130036 50 221 7.0 11.0 0.00 0.00 0.00 66 1014.5
20260507124535 50 226 11.0 14.0 0.00 0.00 0.00 65 1014.2
20260507123031 51 231 11.0 16.0 0.00 0.00 0.00 62 1014.1
20260507121527 52 246 12.0 15.0 0.00 0.00 0.00 61 1014.1
20260507120027 53 243 10.0 14.0 0.00 0.00 0.00 59 1014.2
20260507114525 53 253 10.0 13.0 0.00 0.00 0.00 58 1014.2
20260507113024 53 233 10.0 12.0 0.00 0.00 0.00 58 1014.3
20260507111523 53 229 9.0 11.0 0.00 0.00 0.00 58 1014.4
20260507110022 52 232 9.0 11.0 0.00 0.00 0.00 62 1014.4
20260507104526 51 236 11.0 14.0 0.00 0.00 0.00 62 1014.4
20260507103023 52 225 9.0 11.0 0.00 0.00 0.00 61 1014.4
20260507101534 52 232 11.0 12.0 0.00 0.00 0.00 61 1014.4
20260507100027 52 226 10.0 12.0 0.00 0.00 0.00 61 1014.5
20260507094516 52 226 9.0 11.0 0.00 0.00 0.00 62 1014.6
20260507093020 53 233 8.0 11.0 0.00 0.00 0.00 60 1014.7
20260507091533 54 236 10.0 11.0 0.00 0.00 0.00 59 1014.7
20260507090012 54 224 10.0 13.0 0.00 0.00 0.00 59 1014.8
20260507084511 52 226 9.0 12.0 0.00 0.00 0.00 62 1014.8
20260507083014 52 226 8.0 11.0 0.00 0.00 0.00 62 1014.8
20260507081507 53 217 9.0 12.0 0.00 0.00 0.00 60 1014.8
20260507080006 55 221 9.0 11.0 0.00 0.00 0.00 55 1014.7
20260507074505 54 245 8.0 11.0 0.00 0.00 0.00 57 1014.7
20260507073113 54 224 9.0 11.0 0.00 0.00 0.00 57 1014.8
20260507071600 57 234 7.0 10.0 0.00 0.00 0.00 51 1014.7
20260507070135 57 238 6.0 10.0 0.00 0.00 0.00 50 1014.7
20260507064553 58 238 9.0 13.0 0.00 0.00 0.00 48 1014.6
20260507063053 58 246 7.0 10.0 0.00 0.00 0.00 48 1014.8
20260507061551 57 259 6.0 8.0 0.00 0.00 0.00 48 1014.8
20260507060049 58 284 3.0 7.0 0.00 0.00 0.00 44 1014.9
20260507054552 61 252 9.0 18.0 0.00 0.00 0.00 40 1014.5
20260507053046 60 240 14.0 22.0 0.00 0.00 0.00 39 1014.1
20260507051546 60 256 13.0 19.0 0.00 0.00 0.00 40 1014.1
20260507050045 60 269 11.0 17.0 0.00 0.00 0.00 43 1014.2
20260507044548 61 260 11.0 18.0 0.00 0.00 0.00 43 1014.2
20260507043043 61 266 10.0 17.0 0.00 0.00 0.00 44 1014.3
20260507041544 61 262 10.0 14.0 0.00 0.00 0.00 44 1014.4
20260507040040 62 256 8.0 16.0 0.00 0.00 0.00 42 1014.3
20260507034543 63 267 9.0 14.0 0.00 0.00 0.00 42 1014.1
20260507033038 62 262 6.0 10.0 0.00 0.00 0.00 42 1014.0
20260507031541 63 263 8.0 14.0 0.00 0.00 0.00 41 1013.9
20260507030041 63 255 9.0 12.0 0.00 0.00 0.00 42 1013.8
20260507024536 63 250 4.0 9.0 0.00 0.00 0.00 42 1013.9
20260507023034 65 300 7.0 12.0 0.00 0.00 0.00 39 1013.8
20260507021534 67 269 8.0 16.0 0.00 0.00 0.00 38 1013.8
20260507020034 67 301 9.0 15.0 0.00 0.00 0.00 37 1013.5
20260507014535 68 290 11.0 16.0 0.00 0.00 0.00 36 1013.6
20260507013035 68 298 12.0 21.0 0.00 0.00 0.00 35 1013.5
20260507011532 69 301 14.0 23.0 0.00 0.00 0.00 35 1013.3
20260507010030 70 284 13.0 19.0 0.00 0.00 0.00 34 1013.2
20260507004528 71 290 14.0 27.0 0.00 0.00 0.00 32 1013.0
20260507003027 71 293 18.0 27.0 0.00 0.00 0.00 30 1012.7
20260507001527 72 295 15.0 26.0 0.00 0.00 0.00 30 1012.6
20260507000028 73 291 19.0 29.0 0.00 0.00 0.00 29 1012.5
20260506234525 75 291 22.0 32.0 0.00 0.00 0.00 27 1012.4
20260506233025 75 307 20.0 28.0 0.00 0.00 0.00 27 1012.3
20260506231524 75 297 16.0 26.0 0.00 0.00 0.00 25 1012.5
20260506230023 74 283 16.0 23.0 0.00 0.00 0.00 26 1012.7
20260506224523 74 276 17.0 29.0 0.00 0.00 0.00 25 1012.7
20260506223021 76 300 17.0 29.0 0.00 0.00 0.00 25 1012.8
20260506221520 76 284 17.0 26.0 0.00 0.00 0.00 28 1012.8
20260506220028 76 298 16.0 23.0 0.00 0.00 0.00 29 1012.8
20260506214520 76 290 18.0 33.0 0.00 0.00 0.00 30 1012.9
20260506213018 76 285 18.0 25.0 0.00 0.00 0.00 34 1012.8
20260506211517 77 295 16.0 27.0 0.00 0.00 0.00 32 1012.8
20260506210018 77 293 18.0 29.0 0.00 0.00 0.00 32 1012.8
20260506204516 77 282 17.0 28.0 0.00 0.00 0.00 31 1012.6
20260506203015 77 291 15.0 22.0 0.00 0.00 0.00 30 1012.7
20260506201513 77 285 14.0 21.0 0.00 0.00 0.00 30 1012.7
20260506200019 77 284 13.0 21.0 0.00 0.00 0.00 29 1012.7
20260506194510 76 290 14.0 23.0 0.00 0.00 0.00 29 1012.7
20260506193008 76 284 13.0 18.0 0.00 0.00 0.00 30 1013.0